Orbital Elements at Epoch 2459200.5 (2020-Dec-17.0) TDB
Reference: JPL 18 (heliocentric ecliptic J2000)
Element | Value | Uncertainty (1-sigma) | Units |
e | .1167166806678188 | 4.3373e-08 | |
a | 2.353198340828035 | 1.1228e-08 | au |
q | 2.078540841533568 | 1.0777e-07 | au |
i | 6.22077848604908 | 4.4014e-06 | deg |
node | 104.3415533440077 | 3.7323e-05 | deg |
peri | 15.49518545978207 | 4.2168e-05 | deg |
M | 319.6768008346909 | 2.0004e-05 | deg |
tp | 2459348.185788908836 (2021-May-13.68578891) | 7.3566e-05 | TDB |
period | 1318.518498227726 3.61 | 9.4367e-06 2.584e-08 | d yr |
n | .2730337120669073 | 1.9541e-09 | deg/d |
Q | 2.627855840122501 | 1.2538e-08 | au |
|
| | Orbit Determination Parameters
Additional Information
|